Station RDDA2 - 9491094 - Red Dog Dock, AK Image indicating link to RSS feed of recent meteorological observations for station RDDA2


Conditions at RDDA2 as of
(1:18 pm AKDT)
2118 GMT on 04/19/2024:
     

Click on the graph icon in the table below to see a time series plot of the last five days of that observation.

5-day plot - Wind Direction Wind Direction (WDIR):NNW ( 340 deg true )
5-day plot - Wind Speed Wind Speed (WSPD): 8.9 kts
5-day plot - Wind Gust Wind Gust (GST): 9.9 kts
5-day plot - Atmospheric Pressure Atmospheric Pressure (PRES):30.20 in
5-day plot - Air Temperature Air Temperature (ATMP): 22.5 °F
5-day plot - Water Temperature Water Temperature (WTMP): 28.9 °F
5-day plot - Wind Chill Wind Chill (CHILL): 11.7 °F
5-day plot - Wind Speed at 10 Meters Wind Speed at 10 meters (WSPD10M): 7.8 kts
5-day plot - Wind Speed at 20 Meters Wind Speed at 20 meters (WSPD20M): 9.7 kts
5-day plot -  Wind Speed, Wind Gust and Atmospheric Pressure Combined plot of Wind Speed, Gust, and Air Pressure
NOS Water Level Observation Network Water Level
Previous observations
TIME
(AKDT)
5-day plot - Wind Direction
WDIR
 
5-day plot - Wind Speed
WSPD
kts
5-day plot - Wind Gust
GST
kts
5-day plot - Wave Height
WVHT
ft
5-day plot - Dominant Wave Period
DPD
sec
5-day plot - Average Wave Period
APD
sec
5-day plot - Mean Wave Direction
MWD
 
5-day plot - Atmospheric Pressure
PRES
in
5-day plot - Pressure Tendency
PTDY
in
5-day plot - Air Temperature
ATMP
°F
5-day plot - Water Temperature
WTMP
°F
5-day plot - Dew Point
DEWP
°F
5-day plot - Salinity
SAL
psu
5-day plot - Visibility
VIS
nmi
5-day plot - Tide (above MLLW)
TIDE
ft
2024-04-19 01:12 pmNNW 8.9 11.1----30.20- 21.7 28.9----
2024-04-19 01:06 pmNNW 8.9 9.9----30.20- 21.4 28.9----
2024-04-19 01:00 pmNNW 8.0 9.9----30.20-0.01 21.4 28.9----
2024-04-19 12:54 pmNNW 8.0 8.9----30.20- 21.9 28.9----
2024-04-19 12:48 pmNNW 8.0 8.9----30.20- 21.4 28.9----
2024-04-19 12:42 pm N 8.0 8.9----30.20- 21.2 28.9----
2024-04-19 12:36 pm N 7.0 9.9----30.20- 20.3 28.9----
2024-04-19 12:30 pmNNW 8.0 8.9----30.20- 20.5 28.9----
2024-04-19 12:24 pmNNW 8.0 8.9----30.20- 20.3 28.9----
2024-04-19 12:18 pmNNW 7.0 8.9----30.20- 20.8 28.9----
2024-04-19 12:12 pmNNW 8.0 8.9----30.20- 20.5 28.9----
2024-04-19 12:06 pm N 8.0 8.9----30.20- 20.1 28.9----
2024-04-19 12:00 pmNNW 8.0 8.9----30.20+0.00 20.3 28.9----
2024-04-19 11:54 am N 8.0 9.9----30.20- 19.9 28.9----
2024-04-19 11:48 am N 8.0 8.9----30.20- 19.9 28.9----
2024-04-19 11:42 am N 8.0 8.0----30.20- 19.6 28.9----
2024-04-19 11:36 am N 7.0 8.9----30.20- 18.7 28.9----
2024-04-19 11:30 am N 6.0 8.0----30.20- 19.0 28.9----
2024-04-19 11:24 am N 5.1 7.0----30.21- 18.9 28.9----
2024-04-19 11:18 am N 7.0 7.0----30.21- 19.0 28.9----
2024-04-19 11:12 am N 6.0 8.0----30.21- 18.9 28.9----
2024-04-19 11:06 am N 6.0 8.0----30.21- 18.3 28.9----
2024-04-19 11:00 am N 7.0 8.0----30.22+0.01 18.1 28.9----
2024-04-19 10:54 am N 6.0 7.0----30.22- 18.3 28.9----
2024-04-19 10:48 am N 7.0 8.0----30.21- 18.1 28.9----
2024-04-19 10:42 am N 7.0 8.0----30.21- 17.8 28.9----
2024-04-19 10:36 am N 7.0 8.0----30.21- 17.4 28.9----
2024-04-19 10:30 amNNW 7.0 8.9----30.21- 18.0 28.9----
2024-04-19 10:24 am N 7.0 8.9----30.21- 17.4 28.9----
2024-04-19 10:18 amNNW 8.0 8.9----30.21- 17.4 28.9----
2024-04-19 10:12 am N 7.0 9.9----30.21- 17.2 28.9----
2024-04-19 10:06 am N 8.0 8.9----30.21- 17.2 28.9----
2024-04-19 10:00 am N 7.0 8.0----30.21+0.01 16.7 28.9----
2024-04-19 09:54 am N 8.0 8.9----30.20- 16.7 28.9----
2024-04-19 09:48 am N 8.0 8.9----30.20- 16.7 28.9----
2024-04-19 09:42 amNNW 8.9 9.9----30.20- 16.7 28.9----
2024-04-19 09:36 amNNW 7.0 8.9----30.21- 16.7 28.9----
2024-04-19 09:30 amNNW 6.0 8.0----30.20- 16.7 28.9----
2024-04-19 09:24 am N 6.0 7.0----30.20- 16.7 28.9----
2024-04-19 09:18 am N 5.1 7.0----30.20- 16.9 28.9----
2024-04-19 09:12 am N 6.0 7.0----30.20- 16.7 28.9----
2024-04-19 09:06 am N 6.0 7.0----30.21- 16.5 28.9----
2024-04-19 09:00 am N 6.0 6.0----30.21+0.03 16.3 28.9----
2024-04-19 08:54 am N 5.1 6.0----30.21- 16.2 28.9----
2024-04-19 08:48 am N 4.1 5.1----30.22- 16.2 28.9----
2024-04-19 08:42 am N 4.1 6.0----30.22- 16.0 28.9----
2024-04-19 08:30 am N 5.1 6.0----30.21- 16.0 28.9----
2024-04-19 08:18 amNNW 5.1 7.0----30.21- 16.0 28.9----
2024-04-19 08:12 amNNW 6.0 8.0----30.21- 15.6 28.9----
2024-04-19 08:06 amNNW 7.0 8.0----30.21- 15.6 28.9----
2024-04-19 08:00 amNNW 6.0 8.0----30.21+0.03 15.6 28.9----
2024-04-19 07:54 amNNW 8.0 8.9----30.21- 15.6 28.9----
2024-04-19 07:48 amNNW 5.1 8.0----30.20- 15.4 28.9----
2024-04-19 07:42 am NW 7.0 8.0----30.20- 15.3 28.9----
2024-04-19 07:36 amNNW 7.0 8.0----30.20- 15.3 28.9----
2024-04-19 07:30 am NW 6.0 8.0----30.20- 15.4 28.9----
2024-04-19 07:24 am NW 7.0 8.0----30.20- 15.4 28.9----
2024-04-19 07:18 am NW 6.0 8.0----30.20- 15.6 28.9----
2024-04-19 07:12 am NW 5.1 6.0----30.20- 15.8 28.9----
2024-04-19 07:06 am NW 7.0 8.0----30.20- 15.8 28.9----
2024-04-19 07:00 am NW 7.0 8.0----30.20+0.02 15.8 28.9----
2024-04-19 06:54 am NW 7.0 8.0----30.19- 15.8 28.9----
2024-04-19 06:42 amWNW 6.0 7.0----30.19- 16.0 28.9----
2024-04-19 06:36 am NW 6.0 7.0----30.19- 16.2 28.9----
2024-04-19 06:30 am NW 5.1 6.0----30.19- 16.5 28.9----
2024-04-19 06:24 amWNW 6.0 7.0----30.19- 16.5 28.9----
2024-04-19 06:18 amWNW 6.0 7.0----30.19- 16.7 28.9----
2024-04-19 06:12 amWNW 5.1 6.0----30.19- 16.7 28.9----
2024-04-19 06:06 amWNW 5.1 6.0----30.18- 16.7 28.9----
2024-04-19 06:00 amWNW 6.0 6.0----30.18+0.01 17.1 28.9----
2024-04-19 05:54 amWNW 5.1 7.0----30.18- 17.1 28.9----
2024-04-19 05:48 amWNW 6.0 7.0----30.18- 17.2 28.9----
2024-04-19 05:42 amWNW 6.0 7.0----30.18- 17.4 28.9----
2024-04-19 05:36 amWNW 5.1 6.0----30.18- 17.6 28.9----
2024-04-19 05:30 am NW 5.1 7.0----30.18- 17.6 28.9----
2024-04-19 05:24 am NW 6.0 7.0----30.18- 17.6 28.9----
2024-04-19 05:18 amWNW 6.0 7.0----30.18- 17.6 28.9----
2024-04-19 05:12 amWNW 5.1 6.0----30.18- 17.8 28.9----
2024-04-19 05:06 am NW 4.1 5.1----30.18- 17.6 28.9----
2024-04-19 05:00 amWNW 5.1 7.0----30.17+0.01 17.6 28.9----
2024-04-19 04:54 amWNW 6.0 7.0----30.17- 17.8 28.9----
2024-04-19 04:48 am W 6.0 8.0----30.17- 17.8 28.9----
2024-04-19 04:42 amWNW 8.0 8.9----30.18- 18.0 28.9----
2024-04-19 04:36 am W 5.1 7.0----30.17- 18.0 28.9----
2024-04-19 04:30 amWNW 7.0 8.0----30.18- 18.1 28.9----
2024-04-19 04:24 am W 7.0 8.0----30.18- 18.1 28.9----
2024-04-19 04:18 am W 7.0 8.0----30.18- 18.3 28.9----
2024-04-19 04:12 am W 5.1 7.0----30.18- 18.5 28.9----
2024-04-19 04:06 am W 6.0 7.0----30.18- 18.5 28.9----
2024-04-19 04:00 am W 5.1 7.0----30.18+0.03 18.7 28.9----
2024-04-19 03:54 am W 5.1 7.0----30.18- 18.9 28.9----
2024-04-19 03:48 am W 5.1 7.0----30.18- 18.9 28.9----
2024-04-19 03:42 am W 6.0 7.0----30.17- 18.9 28.9----
2024-04-19 03:36 am W 6.0 8.0----30.17- 19.0 28.9----
2024-04-19 03:30 am W 7.0 8.0----30.17- 19.4 28.9----
2024-04-19 03:24 am W 5.1 7.0----30.17- 19.9 28.9----
2024-04-19 03:18 am W 6.0 7.0----30.17- 20.3 28.9----
2024-04-19 03:12 am W 5.1 6.0----30.17- 20.7 28.9----
2024-04-19 03:06 amWSW 1.9 4.1----30.17- 20.8 28.9----
2024-04-19 03:00 amWSW 2.9 4.1----30.17+0.04 20.8 28.9----
2024-04-19 02:54 am- 0.0 2.9----30.17- 20.7 28.9----
2024-04-19 02:48 am SW 1.9 2.9----30.17- 20.5 28.9----
2024-04-19 02:42 am W 1.0 1.9----30.16- 20.7 28.9----
2024-04-19 02:36 am- 0.0 2.9----30.16- 20.5 28.9----
2024-04-19 02:30 am W 1.9 4.1----30.16- 20.7 28.9----
2024-04-19 02:24 amWSW 1.9 2.9----30.16- 20.7 28.9----
2024-04-19 02:18 am W 1.9 5.1----30.16- 20.7 28.9----
2024-04-19 02:12 am W 4.1 5.1----30.16- 20.7 28.9----
2024-04-19 02:06 amWNW 2.9 4.1----30.16- 20.7 28.9----
2024-04-19 02:00 am- 0.0 5.1----30.16+0.04 20.7 28.9----
2024-04-19 01:54 amWSW 2.9 6.0----30.16- 20.7 28.9----
2024-04-19 01:48 am W 4.1 5.1----30.16- 20.7 28.9----
2024-04-19 01:42 amWSW 2.9 6.0----30.16- 20.8 28.9----
2024-04-19 01:36 amWSW 5.1 8.9----30.16- 20.8 28.9----
2024-04-19 01:30 amWSW 5.1 8.9----30.15- 21.0 28.9----
2024-04-19 01:24 amWSW 5.1 9.9----30.15- 21.0 28.9----
2024-04-19 01:18 am W 8.0 11.1----30.15- 21.0 28.9----
2024-04-19 01:12 am W 8.9 11.1----30.15- 21.2 28.9----
2024-04-19 01:06 am W 7.0 8.9----30.15- 21.4 28.9----
2024-04-19 01:00 am W 5.1 7.0----30.15+0.06 21.6 28.9----
2024-04-19 12:54 amWSW 2.9 4.1----30.15- 21.6 28.9----
2024-04-19 12:48 am SW 1.9 4.1----30.14- 21.4 28.9----
2024-04-19 12:42 amWSW 1.0 2.9----30.14- 21.4 28.9----
2024-04-19 12:36 am SW 2.9 5.1----30.14- 21.2 28.9----
2024-04-19 12:30 amSSW 2.9 4.1----30.14- 21.0 28.9----
2024-04-19 12:24 am SW 2.9 5.1----30.14- 21.0 28.9----
2024-04-19 12:18 am SW 2.9 6.0----30.14- 21.2 28.9----
2024-04-19 12:12 amWSW 2.9 6.0----30.14- 21.4 28.9----
2024-04-19 12:06 am SW 4.1 6.0----30.14- 21.2 28.9----
2024-04-19 12:00 am SW 4.1 7.0----30.14+0.10 21.2 28.9----
2024-04-18 11:54 pm SW 5.1 6.0----30.14- 21.4 28.9----
2024-04-18 11:48 pm SW 5.1 7.0----30.13- 21.7 28.9----
2024-04-18 11:42 pmWSW 4.1 7.0----30.13- 21.9 28.9----
2024-04-18 11:36 pmWSW 4.1 7.0----30.13- 22.3 28.9----
2024-04-18 11:30 pmWSW 6.0 7.0----30.13- 22.6 28.9----
2024-04-18 11:24 pmWSW 6.0 8.9----30.13- 22.6 28.9----
2024-04-18 11:18 pmWSW 5.1 9.9----30.12- 23.2 28.9----
2024-04-18 11:12 pm SW 5.1 7.0----30.12- 23.5 28.9----
2024-04-18 11:06 pm SW 4.1 8.0----30.12- 23.7 28.9----
2024-04-18 11:00 pmSSW 6.0 8.0----30.12+0.10 23.5 28.9----
2024-04-18 10:54 pm SW 7.0 12.0----30.11- 24.1 28.9----
2024-04-18 10:48 pm SW 8.9 12.0----30.11- 24.3 28.9----
2024-04-18 10:42 pmWSW 8.0 12.0----30.11- 24.4 28.9----
2024-04-18 10:36 pm SW 8.9 12.0----30.11- 25.0 28.9----
2024-04-18 10:30 pmWSW 9.9 14.0----30.10- 25.0 28.9----
2024-04-18 10:24 pmWSW 6.0 9.9----30.10- 26.6 28.9----
2024-04-18 10:18 pm SW 7.0 13.0----30.09- 26.8 28.9----
2024-04-18 10:12 pm SW 8.0 12.0----30.09- 26.8 28.9----
2024-04-18 10:06 pmWSW 9.9 14.0----30.09- 26.6 28.9----
2024-04-18 10:00 pmWSW 8.9 15.0----30.08+0.07 27.0 28.9----
2024-04-18 09:54 pmWSW 8.0 15.0----30.08- 27.0 28.9----
2024-04-18 09:48 pmWSW 13.0 15.9----30.07- 27.0 28.9----
2024-04-18 09:42 pm SW 11.1 15.9----30.07- 27.5 28.9----
2024-04-18 09:36 pm SW 11.1 18.1----30.06- 28.2 28.9----
2024-04-18 09:30 pm SW 9.9 18.1----30.06- 28.9 28.9----
2024-04-18 09:24 pmWSW 8.9 14.0----30.06- 30.2 28.9----
2024-04-18 09:18 pm SW 13.0 20.0----30.05- 31.1 28.9----
2024-04-18 09:12 pm S 14.0 18.1----30.05- 34.7 28.9----
2024-04-18 09:06 pm S 11.1 15.9----30.04- 34.9 28.9----
2024-04-18 09:00 pm S 13.0 18.1----30.04+0.03 34.9 28.9----
2024-04-18 08:54 pm S 15.0 20.0----30.04- 35.4 28.9----
2024-04-18 08:48 pm S 18.1 21.0----30.04- 35.8 28.9----
2024-04-18 08:42 pmSSE 19.0 22.9----30.03- 36.0 28.9----
2024-04-18 08:36 pmSSE 21.0 24.1----30.03- 36.5 28.9----
2024-04-18 08:30 pmSSE 21.0 24.1----30.02- 36.9 28.9----
2024-04-18 08:24 pmSSE 21.0 24.1----30.02- 36.9 28.9----
2024-04-18 08:18 pmSSE 22.0 25.1----30.02- 36.9 28.9----
2024-04-18 08:12 pm SE 24.1 27.0----30.01- 37.2 28.9----
2024-04-18 08:06 pmSSE 22.9 25.1----30.02- 37.2 28.9----
2024-04-18 08:00 pm SE 22.0 26.0----30.02+0.01 37.0 28.9----
2024-04-18 07:54 pm SE 22.0 25.1----30.01- 36.9 28.9----
2024-04-18 07:48 pm SE 22.9 26.0----30.01- 37.0 28.9----
2024-04-18 07:42 pm SE 22.0 24.1----30.01- 36.9 28.9----
2024-04-18 07:36 pm SE 21.0 22.9----30.01- 36.9 28.9----
2024-04-18 07:30 pm SE 20.0 22.9----30.01- 36.9 28.9----
2024-04-18 07:24 pm SE 21.0 25.1----30.01- 36.9 28.9----
2024-04-18 07:18 pm SE 22.0 25.1----30.01- 37.2 28.9----
2024-04-18 07:12 pm SE 21.0 24.1----30.01- 37.0 28.9----
2024-04-18 07:06 pm SE 21.0 22.9----30.01- 37.0 28.9----
2024-04-18 07:00 pm SE 21.0 22.9----30.01+0.00 36.7 28.9----
2024-04-18 06:54 pm SE 20.0 22.0----30.01- 36.7 28.9----
2024-04-18 06:48 pm SE 19.0 24.1----30.01- 36.7 28.9----
2024-04-18 06:42 pm SE 21.0 22.9----30.01- 36.9 28.9----
2024-04-18 06:36 pm SE 21.0 22.9----30.01- 36.7 28.9----
2024-04-18 06:30 pm SE 19.0 25.1----30.01- 36.7 28.9----
2024-04-18 06:24 pmSSE 21.0 22.9----30.01- 36.9 28.9----
2024-04-18 06:18 pm SE 20.0 22.9----30.01- 36.7 28.9----
2024-04-18 06:12 pm SE 20.0 22.9----30.01- 36.9 28.9----
2024-04-18 06:06 pm SE 18.1 22.0----30.01- 36.5 28.9----
2024-04-18 06:00 pm SE 21.0 24.1----30.01+0.01 36.9 28.9----
2024-04-18 05:54 pm SE 21.0 24.1----30.01- 36.9 28.9----
2024-04-18 05:48 pm SE 20.0 24.1----30.01- 36.9 28.9----
2024-04-18 05:42 pm SE 21.0 25.1----30.01- 37.0 28.9----
2024-04-18 05:36 pm SE 22.0 25.1----30.01- 37.2 28.9----
2024-04-18 05:30 pm SE 22.0 25.1----30.01- 37.4 28.9----
2024-04-18 05:24 pm SE 22.9 26.0----30.01- 37.8 28.9----
2024-04-18 05:18 pm SE 22.9 26.0----30.01- 37.8 28.9----
2024-04-18 05:12 pm SE 22.0 25.1----30.00- 37.8 28.9----
2024-04-18 05:06 pm SE 21.0 24.1----30.01- 37.4 28.9----
2024-04-18 05:00 pm SE 20.0 24.1----30.01+0.01 37.0 28.9----
2024-04-18 04:54 pm SE 22.0 24.1----30.01- 37.6 28.9----
2024-04-18 04:48 pm SE 21.0 25.1----30.01- 37.0 28.9----
2024-04-18 04:42 pm SE 21.0 22.9----30.01- 36.9 28.9----
2024-04-18 04:36 pm SE 20.0 22.9----30.01- 37.0 28.9----
2024-04-18 04:30 pm SE 21.0 26.0----30.01- 36.9 28.9----
2024-04-18 04:24 pm SE 24.1 26.0----30.01- 37.2 28.9----
2024-04-18 04:18 pm SE 24.1 29.9----30.01- 37.2 28.9----
2024-04-18 04:12 pm SE 26.0 29.9----30.00- 37.6 28.9----
2024-04-18 04:06 pm SE 27.0 31.1----30.00- 37.8 28.9----
2024-04-18 04:00 pm SE 25.1 28.0----30.01+0.02 37.6 28.9----
2024-04-18 03:54 pm SE 25.1 28.9----30.00- 37.6 28.9----
2024-04-18 03:48 pm SE 25.1 29.9----30.00- 37.6 28.9----
2024-04-18 03:42 pm SE 26.0 28.9----30.00- 37.4 28.9----
2024-04-18 03:36 pm SE 27.0 29.9----30.00- 37.8 28.9----
2024-04-18 03:30 pm SE 27.0 29.9----30.00- 37.6 28.9----
2024-04-18 03:24 pm SE 26.0 29.9----30.00- 37.4 28.9----
2024-04-18 03:18 pm SE 26.0 28.0----30.00- 37.6 28.9----
2024-04-18 03:12 pmESE 25.1 28.9----30.00- 37.2 28.9----
2024-04-18 03:06 pmESE 26.0 29.9----29.99- 37.2 28.9----
2024-04-18 03:00 pmESE 25.1 29.9----30.00+0.01 37.2 28.9----
2024-04-18 02:54 pmESE 22.9 27.0----29.99- 37.2 28.9----
2024-04-18 02:48 pmESE 25.1 28.0----30.00- 37.4 28.9----
2024-04-18 02:42 pmESE 25.1 28.9----29.99- 37.4 28.9----
2024-04-18 02:36 pmESE 24.1 27.0----29.99- 37.0 28.9----
2024-04-18 02:30 pmESE 25.1 28.9----30.00- 36.9 28.9----
2024-04-18 02:24 pmESE 25.1 28.0----30.00- 36.7 28.9----
2024-04-18 02:18 pmESE 26.0 29.9----29.99- 36.7 28.9----
2024-04-18 02:12 pmESE 25.1 28.0----29.99- 36.7 28.9----
2024-04-18 02:06 pm SE 24.1 26.0----30.00- 36.5 28.9----
2024-04-18 02:00 pm SE 21.0 25.1----30.00+0.02- 28.9----
2024-04-18 01:54 pm SE 21.0 24.1----30.00-- 28.9----
2024-04-18 01:48 pm SE 25.1 28.9----29.99- 37.2 28.9----
2024-04-18 01:42 pm SE 22.9 27.0----29.99- 37.2 28.9----
2024-04-18 01:36 pm SE 22.0 25.1----29.99- 37.4 28.9----
2024-04-18 01:30 pm SE 21.0 25.1----29.99- 36.9 28.9----
2024-04-18 01:24 pmESE 21.0 25.1----29.98- 36.9 28.9----
2024-04-18 01:18 pm SE 22.0 26.0----29.98- 36.9 28.9----
2024-04-18 01:12 pmESE 22.0 26.0----29.98- 36.9 28.9----
2024-04-18 01:06 pmESE 22.0 26.0----29.98- 36.9 28.9----
2024-04-18 01:00 pmESE 22.9 28.0----29.98+0.01 36.9 28.9----
2024-04-18 12:54 pmESE 24.1 27.0----29.98- 37.0 28.9----